Time,TemperatureF,DewpointF,PressureIn,WindDirection,WindDirectionDegrees,WindSpeedMPH,WindSpeedGustMPH,Humidity,HourlyPrecipIn,Conditions,Clouds,dailyrainin,SoftwareType,DateUTC
2013-05-26 00:00:00,46.0,-99.9,29.72,North,351,12.0,-999.0,-999,-99.99,,,-99.99,,2013-05-26 04:00:00,
2013-05-26 00:03:00,46.0,-99.9,29.71,NNW,328,15.0,-999.0,-999,-99.99,,,-99.99,,2013-05-26 04:03:00,
2013-05-26 00:13:00,46.0,-99.9,29.71,NNW,328,15.0,-999.0,-999,-99.99,,,-99.99,,2013-05-26 04:13:00,
2013-05-26 00:23:00,46.0,-99.9,29.72,North,351,12.0,-999.0,-999,-99.99,,,-99.99,,2013-05-26 04:23:00,
2013-05-26 00:33:00,46.0,-99.9,29.72,North,351,12.0,-999.0,-999,-99.99,,,-99.99,,2013-05-26 04:33:00,
2013-05-26 00:43:00,46.0,-99.9,29.72,North,351,12.0,-999.0,-999,-99.99,,,-99.99,,2013-05-26 04:43:00,
2013-05-26 00:53:00,46.0,-99.9,29.72,North,351,12.0,-999.0,-999,-99.99,,,-99.99,,2013-05-26 04:53:00,
2013-05-26 01:00:00,46.0,-99.9,29.72,NNW,345,11.0,-999.0,-999,-99.99,,,-99.99,,2013-05-26 05:00:00,
2013-05-26 01:22:00,46.0,-99.9,29.72,NNW,345,11.0,-999.0,-999,-99.99,,,-99.99,,2013-05-26 05:22:00,
2013-05-26 01:32:00,46.0,-99.9,29.72,NNW,345,11.0,-999.0,-999,-99.99,,,-99.99,,2013-05-26 05:32:00,
2013-05-26 01:42:00,46.0,-99.9,29.72,NNW,345,11.0,-999.0,-999,-99.99,,,-99.99,,2013-05-26 05:42:00,
2013-05-26 01:52:00,46.0,-99.9,29.72,NNW,345,11.0,-999.0,-999,-99.99,,,-99.99,,2013-05-26 05:52:00,
2013-05-26 04:42:00,45.0,-99.9,29.72,NW,321,16.0,-999.0,-999,-99.99,,,-99.99,,2013-05-26 08:42:00,
2013-05-26 04:53:00,45.0,-99.9,29.72,NW,321,16.0,-999.0,-999,-99.99,,,-99.99,,2013-05-26 08:53:00,
2013-05-26 05:01:00,45.0,-99.9,29.72,NW,321,16.0,-999.0,-999,-99.99,,,-99.99,,2013-05-26 09:01:00,
2013-05-26 05:11:00,45.0,-99.9,29.72,NW,323,11.0,-999.0,-999,-99.99,,,-99.99,,2013-05-26 09:11:00,
2013-05-26 05:22:00,45.0,-99.9,29.72,NW,323,11.0,-999.0,-999,-99.99,,,-99.99,,2013-05-26 09:22:00,
2013-05-26 05:34:00,45.0,-99.9,29.72,NW,323,11.0,-999.0,-999,-99.99,,,-99.99,,2013-05-26 09:34:00,
2013-05-26 05:43:00,45.0,-99.9,29.72,NW,323,11.0,-999.0,-999,-99.99,,,-99.99,,2013-05-26 09:43:00,
2013-05-26 05:53:00,46.0,-99.9,29.72,NW,319,11.0,-999.0,-999,-99.99,,,-99.99,,2013-05-26 09:53:00,
2013-05-26 06:03:00,46.0,-99.9,29.72,NW,319,11.0,-999.0,-999,-99.99,,,-99.99,,2013-05-26 10:03:00,
2013-05-26 06:12:00,46.0,-99.9,29.72,NW,319,11.0,-999.0,-999,-99.99,,,-99.99,,2013-05-26 10:12:00,
2013-05-26 06:23:00,47.0,-99.9,29.74,North,349,9.0,-999.0,-999,-99.99,,,-99.99,,2013-05-26 10:23:00,
2013-05-26 06:33:00,47.0,-99.9,29.74,North,349,9.0,-999.0,-999,-99.99,,,-99.99,,2013-05-26 10:33:00,
2013-05-26 06:42:00,47.0,-99.9,29.74,North,349,9.0,-999.0,-999,-99.99,,,-99.99,,2013-05-26 10:42:00,
2013-05-26 06:52:00,47.0,-99.9,29.75,NW,309,21.0,-999.0,-999,-99.99,,,-99.99,,2013-05-26 10:52:00,
2013-05-26 07:00:00,48.0,-99.9,29.75,NW,323,11.0,-999.0,-999,-99.99,,,-99.99,,2013-05-26 11:00:00,
2013-05-26 07:03:00,47.0,-99.9,29.75,NW,309,21.0,-999.0,-999,-99.99,,,-99.99,,2013-05-26 11:03:00,
2013-05-26 07:12:00,47.0,-99.9,29.75,NW,309,21.0,-999.0,-999,-99.99,,,-99.99,,2013-05-26 11:12:00,
2013-05-26 07:22:00,48.0,-99.9,29.75,NW,323,11.0,-999.0,-999,-99.99,,,-99.99,,2013-05-26 11:22:00,
2013-05-26 07:33:00,48.0,-99.9,29.75,NW,323,11.0,-999.0,-999,-99.99,,,-99.99,,2013-05-26 11:33:00,
2013-05-26 07:43:00,48.0,-99.9,29.75,NW,323,11.0,-999.0,-999,-99.99,,,-99.99,,2013-05-26 11:43:00,
2013-05-26 07:52:00,48.0,-99.9,29.75,NW,323,11.0,-999.0,-999,-99.99,,,-99.99,,2013-05-26 11:52:00,
2013-05-26 08:22:00,49.0,-99.9,29.76,NNW,335,16.0,-999.0,-999,-99.99,,,-99.99,,2013-05-26 12:22:00,
2013-05-26 08:30:00,50.0,-99.9,29.77,NW,325,14.0,-999.0,-999,-99.99,,,-99.99,,2013-05-26 12:30:00,
2013-05-26 08:32:00,49.0,-99.9,29.76,NNW,335,16.0,-999.0,-999,-99.99,,,-99.99,,2013-05-26 12:32:00,
2013-05-26 08:42:00,49.0,-99.9,29.76,NNW,335,16.0,-999.0,-999,-99.99,,,-99.99,,2013-05-26 12:42:00,
2013-05-26 08:52:00,50.0,-99.9,29.77,NW,325,14.0,-999.0,-999,-99.99,,,-99.99,,2013-05-26 12:52:00,
2013-05-26 09:02:00,50.0,-99.9,29.77,NW,325,14.0,-999.0,-999,-99.99,,,-99.99,,2013-05-26 13:02:00,
2013-05-26 09:11:00,50.0,-99.9,29.77,NW,325,14.0,-999.0,-999,-99.99,,,-99.99,,2013-05-26 13:11:00,
2013-05-26 09:22:00,50.0,-99.9,29.77,NW,325,14.0,-999.0,-999,-99.99,,,-99.99,,2013-05-26 13:22:00,
2013-05-26 13:42:00,58.0,-99.9,29.84,NW,322,16.0,-999.0,-999,-99.99,,,-99.99,,2013-05-26 17:42:00,
2013-05-26 13:52:00,58.0,-99.9,29.84,NW,322,16.0,-999.0,-999,-99.99,,,-99.99,,2013-05-26 17:52:00,
2013-05-26 14:01:00,58.0,-99.9,29.84,NW,322,16.0,-999.0,-999,-99.99,,,-99.99,,2013-05-26 18:01:00,
2013-05-26 14:12:00,58.0,-99.9,29.84,NNE,29,15.0,-999.0,-999,-99.99,,,-99.99,,2013-05-26 18:12:00,
2013-05-26 14:22:00,58.0,-99.9,29.84,NNE,29,15.0,-999.0,-999,-99.99,,,-99.99,,2013-05-26 18:22:00,
2013-05-26 14:30:00,59.0,-99.9,29.84,North,353,9.0,-999.0,-999,-99.99,,,-99.99,,2013-05-26 18:30:00,
2013-05-26 14:32:00,58.0,-99.9,29.84,NNE,29,15.0,-999.0,-999,-99.99,,,-99.99,,2013-05-26 18:32:00,
2013-05-26 14:42:00,58.0,-99.9,29.84,NNE,29,15.0,-999.0,-999,-99.99,,,-99.99,,2013-05-26 18:42:00,
2013-05-26 14:52:00,59.0,-99.9,29.84,North,353,9.0,-999.0,-999,-99.99,,,-99.99,,2013-05-26 18:52:00,
2013-05-26 15:01:00,59.0,-99.9,29.84,North,353,9.0,-999.0,-999,-99.99,,,-99.99,,2013-05-26 19:01:00,
2013-05-26 15:11:00,59.0,-99.9,29.84,North,353,9.0,-999.0,-999,-99.99,,,-99.99,,2013-05-26 19:11:00,
2013-05-26 15:22:00,59.0,-99.9,29.84,North,353,9.0,-999.0,-999,-99.99,,,-99.99,,2013-05-26 19:22:00,
2013-05-26 16:11:00,59.0,-99.9,29.86,North,2,24.0,-999.0,-999,-99.99,,,-99.99,,2013-05-26 20:11:00,
2013-05-26 16:22:00,59.0,-99.9,29.86,North,2,24.0,-999.0,-999,-99.99,,,-99.99,,2013-05-26 20:22:00,
2013-05-26 16:32:00,59.0,-99.9,29.86,North,2,24.0,-999.0,-999,-99.99,,,-99.99,,2013-05-26 20:32:00,
2013-05-26 16:42:00,59.0,-99.9,29.86,North,2,24.0,-999.0,-999,-99.99,,,-99.99,,2013-05-26 20:42:00,
2013-05-26 16:53:00,57.0,-99.9,29.89,NW,321,14.0,-999.0,-999,-99.99,,,-99.99,,2013-05-26 20:53:00,
2013-05-26 17:00:00,60.0,-99.9,29.89,NNW,327,14.0,-999.0,-999,-99.99,,,-99.99,,2013-05-26 21:00:00,
2013-05-26 17:02:00,57.0,-99.9,29.89,NW,321,14.0,-999.0,-999,-99.99,,,-99.99,,2013-05-26 21:02:00,
2013-05-26 17:12:00,60.0,-99.9,29.89,NNW,327,14.0,-999.0,-999,-99.99,,,-99.99,,2013-05-26 21:12:00,
2013-05-26 17:22:00,60.0,-99.9,29.89,NNW,327,14.0,-999.0,-999,-99.99,,,-99.99,,2013-05-26 21:22:00,
2013-05-26 17:33:00,60.0,-99.9,29.89,NNW,327,14.0,-999.0,-999,-99.99,,,-99.99,,2013-05-26 21:33:00,
2013-05-26 17:43:00,60.0,-99.9,29.89,NNW,327,14.0,-999.0,-999,-99.99,,,-99.99,,2013-05-26 21:43:00,
2013-05-26 17:53:00,60.0,-99.9,29.89,NNW,327,14.0,-999.0,-999,-99.99,,,-99.99,,2013-05-26 21:53:00,
2013-05-26 20:22:00,57.0,-99.9,29.99,NNW,330,15.0,-999.0,-999,-99.99,,,-99.99,,2013-05-27 00:22:00,
2013-05-26 20:32:00,57.0,-99.9,29.99,NNW,330,15.0,-999.0,-999,-99.99,,,-99.99,,2013-05-27 00:32:00,
2013-05-26 20:42:00,56.0,-99.9,30.00,NW,322,10.0,-999.0,-999,-99.99,,,-99.99,,2013-05-27 00:42:00,
2013-05-26 20:52:00,56.0,-99.9,30.00,NW,322,10.0,-999.0,-999,-99.99,,,-99.99,,2013-05-27 00:52:00,
2013-05-26 21:01:00,56.0,-99.9,30.00,NW,322,10.0,-999.0,-999,-99.99,,,-99.99,,2013-05-27 01:01:00,
2013-05-26 21:11:00,56.0,-99.9,30.02,North,352,16.0,-999.0,-999,-99.99,,,-99.99,,2013-05-27 01:11:00,
2013-05-26 21:22:00,56.0,-99.9,30.02,North,352,16.0,-999.0,-999,-99.99,,,-99.99,,2013-05-27 01:22:00,
2013-05-26 21:32:00,56.0,-99.9,30.02,North,352,16.0,-999.0,-999,-99.99,,,-99.99,,2013-05-27 01:32:00,
2013-05-26 21:42:00,56.0,-99.9,30.02,North,352,16.0,-999.0,-999,-99.99,,,-99.99,,2013-05-27 01:42:00,
2013-05-26 21:52:00,55.0,-99.9,30.04,NW,320,11.0,-999.0,-999,-99.99,,,-99.99,,2013-05-27 01:52:00,
2013-05-26 22:02:00,55.0,-99.9,30.04,NW,320,11.0,-999.0,-999,-99.99,,,-99.99,,2013-05-27 02:02:00,
2013-05-26 22:11:00,55.0,-99.9,30.04,NW,320,11.0,-999.0,-999,-99.99,,,-99.99,,2013-05-27 02:11:00,
2013-05-26 22:22:00,55.0,-99.9,30.05,NNW,336,12.0,-999.0,-999,-99.99,,,-99.99,,2013-05-27 02:22:00,
2013-05-26 22:32:00,55.0,-99.9,30.05,NNW,336,12.0,-999.0,-999,-99.99,,,-99.99,,2013-05-27 02:32:00,
2013-05-26 22:43:00,54.0,-99.9,30.06,NNW,339,12.0,-999.0,-999,-99.99,,,-99.99,,2013-05-27 02:43:00,
2013-05-26 22:52:00,54.0,-99.9,30.06,NNW,339,12.0,-999.0,-999,-99.99,,,-99.99,,2013-05-27 02:52:00,
2013-05-26 23:02:00,54.0,-99.9,30.06,NNW,339,12.0,-999.0,-999,-99.99,,,-99.99,,2013-05-27 03:02:00,
2013-05-26 23:11:00,54.0,-99.9,30.06,NNW,339,12.0,-999.0,-999,-99.99,,,-99.99,,2013-05-27 03:11:00,
2013-05-26 23:22:00,54.0,-99.9,30.06,NW,317,10.0,-999.0,-999,-99.99,,,-99.99,,2013-05-27 03:22:00,
2013-05-26 23:30:00,53.0,-99.9,30.07,NW,306,12.0,-999.0,-999,-99.99,,,-99.99,,2013-05-27 03:30:00,
2013-05-26 23:33:00,54.0,-99.9,30.06,NW,317,10.0,-999.0,-999,-99.99,,,-99.99,,2013-05-27 03:33:00,
2013-05-26 23:43:00,54.0,-99.9,30.06,NW,317,10.0,-999.0,-999,-99.99,,,-99.99,,2013-05-27 03:43:00,
2013-05-26 23:54:00,53.0,-99.9,30.07,NW,306,12.0,-999.0,-999,-99.99,,,-99.99,,2013-05-27 03:54:00,